COSMOS 2535 (44421 NORAD) Tracking and Keplerian Element Data

This shows tracking and keplerian element data for the satellite.

Feedback or suggestion? Click here.




ElementValue
Catalog44421
NameCOSMOS 2535
Epoch Orbit430
Epoch Day221.43861986
Epoch Year2019
RAAN273.0752
Inclination97.8794
Eccentricity0.0010607
Argument of Perigee218.4033
Mean Anonmoly141.6427
Mean Motion14.84383675
Decay Rate1.29E-06
L11 44421U 19039A 19221.43861986 .00000129 00000-0 21794-4 0 9996
L22 44421 97.8794 273.0752 0010607 218.4033 141.6427 14.84383675 4303

Live tracking and technical data element details for COSMOS 2535 (NORAD 44421). COSMOS 2535 can be tracked NOW for your location showing map with azimuth and elevation plus other details from your city location.

Track the satellite on the map from your city or location and see movement details for azimuth, elevation, latitude, longitude, range, height, and movement on the map or in text.







IsCatalogInMostPopularTable: catalog: 44421, numindb: 61
Update: records affected: 1



GetName: 44421 COSMOS 2535

Hit Count: updated at: Wed, 21 Aug 2019 11:07:05 GMT